| time (UTC) | temp F | wind direction | speed knots | gust knots | rain 1hr in | rain 24hr in | rain mn in | humidity % | barometer mb |
| 20260904131418 | 69 | 154 | 0.9 | 0.9 | 0.00 | 0.32 | 0.32 | 99 | 1011.7 |
| 20260904130914 | 68 | 182 | 0.0 | 0.9 | 0.00 | 0.32 | 0.32 | 99 | 1011.9 |
| 20260904130412 | 68 | 193 | 1.7 | 1.7 | 0.00 | 0.32 | 0.32 | 99 | 1011.4 |
| 20260904125907 | 69 | 167 | 0.0 | 0.9 | 0.00 | 0.32 | 0.32 | 99 | 1011.6 |
| 20260904125404 | 69 | 174 | 0.9 | 0.9 | 0.00 | 0.32 | 0.32 | 99 | 1011.3 |
| 20260904124903 | 68 | 174 | 0.9 | 0.9 | 0.00 | 0.32 | 0.32 | 99 | 1011.4 |
| 20260904124400 | 68 | 192 | 1.7 | 1.7 | 0.00 | 0.32 | 0.32 | 99 | 1011.5 |
| 20260904123855 | 68 | 175 | 0.9 | 0.9 | 0.00 | 0.32 | 0.32 | 99 | 1011.7 |
| 20260904123349 | 68 | 174 | 0.9 | 0.9 | 0.00 | 0.32 | 0.32 | 99 | 1011.6 |
| 20260904122844 | 68 | 168 | 0.9 | 0.9 | 0.00 | 0.32 | 0.32 | 99 | 1011.7 |
| 20260904122338 | 68 | 170 | 0.9 | 0.9 | 0.00 | 0.32 | 0.32 | 99 | 1011.5 |
| 20260904121834 | 67 | 153 | 0.0 | 0.0 | 0.00 | 0.32 | 0.32 | 99 | 1011.6 |
| 20260904121330 | 67 | 170 | 0.9 | 0.9 | 0.00 | 0.32 | 0.32 | 99 | 1011.7 |
| 20260904120826 | 67 | 168 | 0.0 | 0.9 | 0.00 | 0.32 | 0.32 | 99 | 1011.7 |
| 20260904120322 | 67 | 168 | 0.9 | 0.9 | 0.00 | 0.32 | 0.32 | 99 | 1011.7 |
| 20260904115816 | 67 | 168 | 0.9 | 0.9 | 0.00 | 0.32 | 0.32 | 99 | 1011.6 |
| 20260904115312 | 66 | 165 | 0.9 | 0.9 | 0.00 | 0.32 | 0.32 | 99 | 1011.5 |
| 20260904114811 | 66 | 165 | 0.9 | 0.9 | 0.00 | 0.32 | 0.32 | 99 | 1011.5 |
| 20260904114306 | 66 | 160 | 0.0 | 0.0 | 0.00 | 0.32 | 0.32 | 99 | 1011.2 |
| 20260904113802 | 66 | 160 | 0.0 | 0.0 | 0.00 | 0.32 | 0.32 | 99 | 1011.2 |
| 20260904113300 | 66 | 161 | 0.9 | 0.9 | 0.00 | 0.32 | 0.32 | 99 | 1011.4 |
| 20260904112755 | 66 | 161 | 0.9 | 0.9 | 0.00 | 0.32 | 0.32 | 99 | 1011.2 |
| 20260904112251 | 66 | 157 | 0.9 | 0.9 | 0.00 | 0.32 | 0.32 | 99 | 1011.3 |
| 20260904111747 | 66 | 157 | 0.0 | 0.0 | 0.00 | 0.32 | 0.32 | 99 | 1011.1 |
| 20260904111242 | 66 | 157 | 0.0 | 0.0 | 0.00 | 0.32 | 0.32 | 99 | 1011.2 |
| 20260904110738 | 66 | 157 | 0.0 | 0.0 | 0.00 | 0.32 | 0.32 | 99 | 1011.3 |
| 20260904110237 | 66 | 156 | 0.0 | 0.0 | 0.00 | 0.32 | 0.32 | 99 | 1011.2 |
| 20260904105732 | 66 | 156 | 0.0 | 0.0 | 0.00 | 0.32 | 0.32 | 99 | 1011.1 |
| 20260904105227 | 66 | 156 | 0.0 | 0.0 | 0.00 | 0.32 | 0.32 | 99 | 1010.9 |
| 20260904104722 | 66 | 156 | 0.0 | 0.0 | 0.00 | 0.32 | 0.32 | 99 | 1011.0 |
| 20260904104218 | 66 | 163 | 0.0 | 0.0 | 0.00 | 0.32 | 0.32 | 99 | 1010.8 |
| 20260904103715 | 66 | 163 | 0.0 | 0.0 | 0.00 | 0.32 | 0.32 | 99 | 1011.0 |
| 20260904103209 | 66 | 163 | 0.9 | 0.9 | 0.00 | 0.32 | 0.32 | 99 | 1011.0 |
| 20260904102705 | 67 | 163 | 0.0 | 0.0 | 0.00 | 0.32 | 0.32 | 99 | 1011.2 |
| 20260904102200 | 66 | 167 | 1.7 | 1.7 | 0.00 | 0.32 | 0.32 | 99 | 1011.3 |
| 20260904101657 | 66 | 159 | 0.0 | 0.0 | 0.00 | 0.32 | 0.32 | 99 | 1010.8 |
| 20260904101152 | 66 | 159 | 0.9 | 0.9 | 0.00 | 0.32 | 0.32 | 99 | 1011.1 |
| 20260904100648 | 66 | 159 | 0.0 | 0.0 | 0.00 | 0.32 | 0.32 | 99 | 1011.1 |
| 20260904100143 | 66 | 159 | 0.0 | 0.9 | 0.00 | 0.32 | 0.32 | 99 | 1010.9 |
| 20260904095643 | 66 | 168 | 1.7 | 1.7 | 0.00 | 0.32 | 0.32 | 99 | 1010.9 |
| 20260904095137 | 66 | 172 | 0.0 | 0.9 | 0.00 | 0.32 | 0.32 | 99 | 1010.9 |
| 20260904094632 | 66 | 169 | 0.9 | 0.9 | 0.00 | 0.32 | 0.32 | 99 | 1010.9 |
| 20260904094127 | 66 | 170 | 0.9 | 1.7 | 0.00 | 0.32 | 0.32 | 99 | 1010.9 |
| 20260904093624 | 66 | 155 | 0.9 | 0.9 | 0.00 | 0.32 | 0.32 | 99 | 1010.6 |
| 20260904093124 | 66 | 166 | 0.9 | 0.9 | 0.00 | 0.32 | 0.32 | 99 | 1010.6 |
| 20260904092620 | 66 | 166 | 0.0 | 0.9 | 0.00 | 0.32 | 0.32 | 99 | 1010.5 |
| 20260904092116 | 66 | 166 | 0.0 | 0.0 | 0.00 | 0.32 | 0.32 | 99 | 1010.5 |
| 20260904091612 | 66 | 166 | 0.9 | 0.9 | 0.00 | 0.32 | 0.32 | 99 | 1010.4 |
| 20260904091111 | 66 | 166 | 0.0 | 0.0 | 0.00 | 0.32 | 0.32 | 99 | 1010.3 |
| 20260904090607 | 66 | 167 | 0.9 | 0.9 | 0.00 | 0.32 | 0.32 | 99 | 1010.2 |
| 20260904085603 | 66 | 154 | 0.0 | 0.0 | 0.00 | 0.32 | 0.32 | 99 | 1010.2 |
| 20260904085057 | 66 | 153 | 0.0 | 0.0 | 0.00 | 0.32 | 0.32 | 99 | 1010.5 |
| 20260904084553 | 67 | 154 | 0.0 | 0.9 | 0.00 | 0.32 | 0.32 | 99 | 1010.4 |
| 20260904084049 | 67 | 154 | 0.0 | 0.9 | 0.00 | 0.32 | 0.32 | 99 | 1010.4 |
| 20260904083544 | 67 | 154 | 0.9 | 0.9 | 0.00 | 0.32 | 0.32 | 99 | 1010.4 |
| 20260904083040 | 67 | 154 | 0.9 | 0.9 | 0.00 | 0.32 | 0.32 | 99 | 1010.6 |
| 20260904082535 | 67 | 154 | 0.0 | 0.9 | 0.00 | 0.32 | 0.32 | 99 | 1010.5 |
| 20260904082036 | 67 | 153 | 0.9 | 0.9 | 0.00 | 0.32 | 0.32 | 99 | 1010.4 |
| 20260904081531 | 67 | 153 | 0.0 | 0.0 | 0.00 | 0.32 | 0.32 | 99 | 1010.5 |
| 20260904081026 | 67 | 153 | 0.0 | 0.9 | 0.00 | 0.32 | 0.32 | 99 | 1010.3 |
| 20260904080522 | 67 | 154 | 0.9 | 0.9 | 0.00 | 0.32 | 0.32 | 99 | 1010.4 |
| 20260904080018 | 67 | 154 | 0.0 | 0.0 | 0.00 | 0.32 | 0.32 | 99 | 1010.2 |
| 20260904075514 | 67 | 153 | 0.0 | 0.9 | 0.00 | 0.32 | 0.32 | 99 | 1010.3 |
| 20260904075009 | 67 | 153 | 0.9 | 0.9 | 0.00 | 0.32 | 0.32 | 99 | 1010.1 |
| 20260904074503 | 67 | 153 | 0.9 | 0.9 | 0.00 | 0.32 | 0.32 | 99 | 1010.1 |
| 20260904073958 | 67 | 153 | 0.9 | 1.7 | 0.00 | 0.32 | 0.32 | 99 | 1009.8 |
| 20260904073454 | 67 | 155 | 0.9 | 1.7 | 0.00 | 0.32 | 0.32 | 99 | 1009.7 |
| 20260904072949 | 67 | 152 | 0.0 | 0.0 | 0.00 | 0.32 | 0.32 | 99 | 1009.8 |
| 20260904072444 | 67 | 152 | 0.0 | 0.0 | 0.00 | 0.32 | 0.32 | 99 | 1009.8 |
| 20260904071939 | 67 | 152 | 0.0 | 0.0 | 0.00 | 0.32 | 0.32 | 99 | 1009.9 |
| 20260904071435 | 67 | 152 | 0.0 | 0.0 | 0.00 | 0.32 | 0.32 | 99 | 1009.7 |
| 20260904070929 | 67 | 152 | 0.0 | 0.0 | 0.00 | 0.32 | 0.32 | 99 | 1009.8 |
| 20260904070428 | 67 | 152 | 0.0 | 0.0 | 0.00 | 0.32 | 0.32 | 99 | 1009.7 |
| 20260904065922 | 67 | 152 | 0.9 | 0.9 | 0.00 | 0.32 | 0.32 | 99 | 1010.1 |
| 20260904065419 | 67 | 152 | 0.0 | 0.0 | 0.00 | 0.32 | 0.32 | 99 | 1009.8 |
| 20260904064918 | 68 | 152 | 0.0 | 0.0 | 0.00 | 0.32 | 0.32 | 99 | 1010.1 |
| 20260904064415 | 68 | 153 | 0.0 | 0.0 | 0.00 | 0.32 | 0.32 | 99 | 1010.2 |
| 20260904063910 | 68 | 153 | 0.0 | 0.0 | 0.00 | 0.32 | 0.32 | 99 | 1010.6 |
| 20260904063407 | 68 | 153 | 0.0 | 0.9 | 0.00 | 0.32 | 0.32 | 99 | 1010.7 |
| 20260904062901 | 68 | 139 | 0.9 | 0.9 | 0.05 | 0.32 | 0.32 | 99 | 1010.6 |
| 20260904062357 | 68 | 65 | 0.9 | 1.7 | 0.05 | 0.32 | 0.32 | 99 | 1010.6 |
| 20260904061853 | 68 | 120 | 0.9 | 0.9 | 0.07 | 0.31 | 0.31 | 99 | 1010.6 |
| 20260904061349 | 68 | 98 | 3.5 | 3.5 | 0.19 | 0.31 | 0.31 | 99 | 1010.7 |
| 20260904060845 | 68 | 37 | 0.9 | 1.7 | 0.24 | 0.30 | 0.30 | 99 | 1011.1 |
| 20260904060341 | 69 | 157 | 0.0 | 0.0 | 0.12 | 0.28 | 0.28 | 99 | 1011.1 |
| 20260904055836 | 68 | 141 | 0.0 | 0.9 | 0.00 | 0.26 | 0.26 | 99 | 1011.1 |
| 20260904055331 | 68 | 152 | 0.0 | 0.0 | 0.00 | 0.26 | 0.26 | 99 | 1010.9 |
| 20260904054827 | 68 | 138 | 0.0 | 0.0 | 0.07 | 0.26 | 0.26 | 99 | 1010.5 |
| 20260904054323 | 68 | 142 | 0.9 | 0.9 | 1.02 | 0.26 | 0.26 | 99 | 1010.5 |
| 20260904053818 | 69 | 169 | 0.9 | 0.9 | 1.44 | 0.25 | 0.25 | 99 | 1010.4 |
| 20260904053317 | 70 | 129 | 2.6 | 2.6 | 0.90 | 0.15 | 0.15 | 99 | 1010.9 |
| 20260904052813 | 70 | 192 | 0.9 | 0.9 | 0.05 | 0.01 | 0.01 | 99 | 1010.9 |
| 20260904052309 | 70 | 157 | 0.0 | 0.0 | 0.00 | 0.00 | 0.00 | 99 | 1010.6 |
| 20260904051805 | 70 | 157 | 0.0 | 0.0 | 0.00 | 0.00 | 0.00 | 99 | 1010.6 |
| 20260904051300 | 70 | 157 | 0.0 | 0.0 | 0.00 | 0.00 | 0.00 | 99 | 1010.6 |
| 20260904050750 | 70 | 157 | 0.0 | 0.0 | 0.00 | 0.00 | 0.00 | 99 | 1010.8 |
| 20260904050246 | 70 | 157 | 0.0 | 0.0 | 0.00 | 0.00 | 0.00 | 99 | 1010.7 |
| 20260904045741 | 70 | 157 | 0.0 | 0.0 | 0.00 | 0.00 | 0.00 | 99 | 1010.5 |
| 20260904045235 | 70 | 157 | 0.0 | 0.0 | 0.00 | 0.00 | 0.00 | 99 | 1010.7 |
| 20260904044730 | 70 | 157 | 0.0 | 0.0 | 0.00 | 0.00 | 0.00 | 99 | 1010.5 |
| 20260904044221 | 70 | 157 | 0.0 | 0.0 | 0.00 | 0.00 | 0.00 | 99 | 1010.4 |
| 20260904043717 | 70 | 156 | 0.9 | 0.9 | 0.00 | 0.00 | 0.00 | 99 | 1010.6 |
| 20260904043213 | 70 | 157 | 0.0 | 0.0 | 0.00 | 0.00 | 0.00 | 99 | 1010.7 |
| 20260904042708 | 70 | 157 | 0.0 | 0.0 | 0.00 | 0.00 | 0.00 | 99 | 1010.6 |
| 20260904042205 | 70 | 157 | 0.0 | 0.0 | 0.00 | 0.00 | 0.00 | 99 | 1010.8 |
| 20260904041704 | 71 | 157 | 0.0 | 0.0 | 0.00 | 0.00 | 0.00 | 99 | 1011.0 |
| 20260904041201 | 71 | 157 | 0.0 | 0.0 | 0.00 | 0.00 | 0.00 | 99 | 1011.1 |
| 20260904040656 | 71 | 157 | 0.0 | 0.0 | 0.00 | 0.00 | 0.00 | 99 | 1011.1 |
| 20260904040152 | 71 | 157 | 0.9 | 0.9 | 0.00 | 0.00 | 0.00 | 99 | 1011.1 |
| 20260904035648 | 71 | 157 | 0.0 | 0.9 | 0.00 | 0.26 | 0.26 | 99 | 1011.2 |
| 20260904035143 | 71 | 157 | 0.0 | 0.0 | 0.00 | 0.26 | 0.26 | 99 | 1011.2 |
| 20260904034642 | 71 | 157 | 0.0 | 0.0 | 0.00 | 0.26 | 0.26 | 99 | 1011.4 |
| 20260904034138 | 71 | 157 | 0.0 | 0.9 | 0.00 | 0.26 | 0.26 | 99 | 1011.6 |
| 20260904033634 | 70 | 157 | 0.0 | 0.0 | 0.00 | 0.26 | 0.26 | 99 | 1011.5 |
| 20260904033131 | 71 | 157 | 0.0 | 0.0 | 0.00 | 0.26 | 0.26 | 99 | 1011.4 |
| 20260904032626 | 70 | 157 | 0.0 | 0.0 | 0.00 | 0.26 | 0.26 | 99 | 1011.0 |
| 20260904032125 | 70 | 157 | 0.0 | 0.0 | 0.00 | 0.26 | 0.26 | 99 | 1011.0 |
| 20260904031624 | 71 | 157 | 0.0 | 0.0 | 0.00 | 0.26 | 0.26 | 99 | 1010.9 |
| 20260904031120 | 71 | 157 | 0.9 | 0.9 | 0.00 | 0.26 | 0.26 | 99 | 1010.9 |
| 20260904030616 | 71 | 157 | 0.0 | 0.0 | 0.00 | 0.26 | 0.26 | 99 | 1010.9 |
| 20260904030111 | 71 | 157 | 0.0 | 0.9 | 0.00 | 0.26 | 0.26 | 99 | 1010.7 |
| 20260904025607 | 71 | 157 | 0.0 | 0.0 | 0.00 | 0.26 | 0.26 | 99 | 1010.9 |
| 20260904025101 | 71 | 157 | 0.0 | 0.9 | 0.00 | 0.26 | 0.26 | 99 | 1011.1 |
| 20260904024557 | 71 | 157 | 0.9 | 0.9 | 0.00 | 0.26 | 0.26 | 99 | 1011.4 |
| 20260904024052 | 71 | 157 | 0.0 | 0.0 | 0.00 | 0.26 | 0.26 | 99 | 1011.4 |
| 20260904023548 | 71 | 157 | 0.0 | 0.0 | 0.00 | 0.26 | 0.26 | 99 | 1011.7 |
| 20260904023044 | 71 | 157 | 0.0 | 0.9 | 0.00 | 0.26 | 0.26 | 99 | 1011.6 |
| 20260904022539 | 71 | 157 | 0.0 | 0.0 | 0.00 | 0.26 | 0.26 | 99 | 1011.6 |
| 20260904022036 | 71 | 157 | 0.0 | 0.0 | 0.00 | 0.26 | 0.26 | 99 | 1011.6 |
| 20260904021531 | 72 | 156 | 0.0 | 0.0 | 0.24 | 0.26 | 0.26 | 99 | 1011.7 |
| 20260904021026 | 72 | 157 | 0.0 | 0.0 | 0.54 | 0.26 | 0.26 | 99 | 1012.0 |
| 20260904020521 | 72 | 183 | 0.0 | 0.0 | 0.35 | 0.23 | 0.23 | 99 | 1012.3 |
| 20260904020021 | 72 | 187 | 1.7 | 2.6 | 0.00 | 0.17 | 0.17 | 99 | 1012.3 |
| 20260904015515 | 72 | 150 | 0.0 | 0.0 | 0.00 | 0.17 | 0.17 | 99 | 1012.1 |
| 20260904015014 | 72 | 150 | 0.0 | 0.0 | 0.00 | 0.17 | 0.17 | 99 | 1012.2 |
| 20260904014508 | 72 | 150 | 0.0 | 0.0 | 0.00 | 0.17 | 0.17 | 99 | 1012.2 |
| 20260904014004 | 72 | 150 | 0.0 | 0.0 | 0.00 | 0.17 | 0.17 | 99 | 1012.0 |
| 20260904013500 | 72 | 150 | 0.0 | 0.0 | 0.00 | 0.17 | 0.17 | 99 | 1012.0 |
| 20260904012956 | 72 | 150 | 0.9 | 0.9 | 0.00 | 0.17 | 0.17 | 99 | 1012.1 |
| 20260904012456 | 72 | 150 | 0.9 | 0.9 | 0.00 | 0.17 | 0.17 | 99 | 1012.2 |
| 20260904011950 | 72 | 150 | 0.0 | 0.0 | 0.00 | 0.17 | 0.17 | 99 | 1012.1 |
| 20260904011445 | 72 | 149 | 0.0 | 0.0 | 0.00 | 0.17 | 0.17 | 99 | 1012.1 |
| 20260904010940 | 72 | 159 | 0.0 | 0.0 | 0.00 | 0.17 | 0.17 | 99 | 1012.1 |
| 20260904010437 | 72 | 176 | 0.0 | 0.0 | 0.00 | 0.17 | 0.17 | 99 | 1012.0 |
| 20260904005931 | 72 | 178 | 0.9 | 0.9 | 0.00 | 0.17 | 0.17 | 99 | 1012.2 |
| 20260904005427 | 72 | 154 | 0.9 | 0.9 | 0.00 | 0.17 | 0.17 | 99 | 1012.2 |
| 20260904004921 | 72 | 154 | 0.0 | 0.0 | 0.00 | 0.17 | 0.17 | 99 | 1012.0 |
| 20260904004418 | 72 | 154 | 0.0 | 0.9 | 0.00 | 0.17 | 0.17 | 99 | 1011.7 |
| 20260904003913 | 73 | 154 | 0.0 | 0.0 | 0.00 | 0.17 | 0.17 | 99 | 1011.6 |
| 20260904003409 | 72 | 153 | 0.9 | 0.9 | 0.00 | 0.17 | 0.17 | 99 | 1011.3 |
| 20260904002903 | 72 | 152 | 0.0 | 0.0 | 0.00 | 0.17 | 0.17 | 99 | 1011.3 |
| 20260904002400 | 72 | 152 | 0.9 | 0.9 | 0.00 | 0.17 | 0.17 | 99 | 1011.3 |
| 20260904001859 | 72 | 153 | 0.0 | 0.9 | 0.00 | 0.17 | 0.17 | 99 | 1011.7 |
| 20260904001355 | 72 | 152 | 0.0 | 0.0 | 0.00 | 0.17 | 0.17 | 99 | 1011.7 |
| 20260904000849 | 72 | 152 | 0.0 | 0.0 | 0.00 | 0.17 | 0.17 | 99 | 1011.7 |
| 20260904000348 | 72 | 152 | 0.0 | 0.0 | 0.00 | 0.17 | 0.17 | 99 | 1011.8 |
| 20260903235843 | 73 | 152 | 0.0 | 0.0 | 0.00 | 0.17 | 0.17 | 99 | 1011.6 |
| 20260903235339 | 73 | 152 | 0.0 | 0.0 | 0.00 | 0.17 | 0.17 | 99 | 1011.5 |
| 20260903234838 | 72 | 152 | 0.0 | 0.0 | 0.00 | 0.17 | 0.17 | 99 | 1011.7 |
| 20260903234335 | 73 | 152 | 0.0 | 0.0 | 0.00 | 0.17 | 0.17 | 99 | 1011.5 |
| 20260903233831 | 73 | 152 | 0.0 | 0.0 | 0.00 | 0.17 | 0.17 | 99 | 1011.6 |
| 20260903233327 | 73 | 152 | 0.0 | 0.0 | 0.00 | 0.17 | 0.17 | 99 | 1011.6 |
| 20260903232826 | 73 | 152 | 0.0 | 0.0 | 0.00 | 0.17 | 0.17 | 99 | 1011.4 |
| 20260903232321 | 73 | 152 | 0.0 | 0.0 | 0.00 | 0.17 | 0.17 | 99 | 1011.2 |
| 20260903231820 | 73 | 152 | 0.0 | 0.0 | 0.00 | 0.17 | 0.17 | 99 | 1011.2 |
| 20260903231316 | 73 | 152 | 0.0 | 0.0 | 0.00 | 0.17 | 0.17 | 99 | 1011.4 |
| 20260903230811 | 74 | 152 | 0.0 | 0.0 | 0.00 | 0.17 | 0.17 | 99 | 1011.4 |
| 20260903230307 | 74 | 152 | 0.0 | 0.0 | 0.00 | 0.17 | 0.17 | 99 | 1011.2 |
| 20260903225803 | 74 | 152 | 0.0 | 0.0 | 0.00 | 0.17 | 0.17 | 98 | 1011.1 |
| 20260903225258 | 75 | 152 | 0.0 | 0.0 | 0.00 | 0.17 | 0.17 | 98 | 1010.9 |
| 20260903224755 | 75 | 152 | 0.0 | 0.0 | 0.00 | 0.17 | 0.17 | 97 | 1011.0 |
| 20260903224250 | 75 | 145 | 0.0 | 0.0 | 0.00 | 0.17 | 0.17 | 97 | 1011.1 |
| 20260903223746 | 76 | 145 | 0.0 | 0.9 | 0.00 | 0.17 | 0.17 | 96 | 1010.9 |
| 20260903223244 | 76 | 145 | 0.0 | 0.0 | 0.00 | 0.17 | 0.17 | 96 | 1011.0 |
| 20260903222739 | 77 | 145 | 0.0 | 0.0 | 0.00 | 0.17 | 0.17 | 96 | 1011.2 |
| 20260903222238 | 77 | 145 | 0.0 | 0.0 | 0.00 | 0.17 | 0.17 | 95 | 1011.3 |
| 20260903221733 | 77 | 145 | 0.0 | 0.0 | 0.00 | 0.17 | 0.17 | 94 | 1011.1 |
| 20260903221232 | 77 | 145 | 0.0 | 0.0 | 0.00 | 0.17 | 0.17 | 93 | 1011.3 |
| 20260903220730 | 77 | 145 | 0.0 | 0.0 | 0.00 | 0.17 | 0.17 | 94 | 1011.3 |
| 20260903220225 | 78 | 145 | 0.0 | 0.0 | 0.00 | 0.17 | 0.17 | 92 | 1011.2 |
| 20260903215724 | 78 | 145 | 0.9 | 0.9 | 0.00 | 0.17 | 0.17 | 91 | 1011.4 |
| 20260903215220 | 79 | 145 | 0.9 | 0.9 | 0.00 | 0.17 | 0.17 | 90 | 1011.5 |
| 20260903214718 | 78 | 144 | 0.0 | 0.0 | 0.00 | 0.17 | 0.17 | 90 | 1011.4 |
| 20260903214214 | 78 | 144 | 0.0 | 0.0 | 0.00 | 0.17 | 0.17 | 91 | 1011.4 |
| 20260903213708 | 79 | 144 | 0.0 | 0.0 | 0.00 | 0.17 | 0.17 | 88 | 1011.4 |
| 20260903213204 | 80 | 144 | 0.9 | 0.9 | 0.00 | 0.17 | 0.17 | 86 | 1011.2 |
| 20260903212700 | 81 | 144 | 0.0 | 0.0 | 0.00 | 0.17 | 0.17 | 85 | 1011.4 |
| 20260903212156 | 80 | 144 | 0.0 | 0.0 | 0.00 | 0.17 | 0.17 | 85 | 1011.3 |
| 20260903211649 | 80 | 144 | 0.0 | 0.0 | 0.00 | 0.17 | 0.17 | 86 | 1011.3 |
| 20260903211147 | 80 | 144 | 0.0 | 0.0 | 0.00 | 0.17 | 0.17 | 83 | 1011.4 |
| 20260903210642 | 81 | 144 | 0.0 | 0.0 | 0.00 | 0.17 | 0.17 | 83 | 1011.4 |
| 20260903210137 | 83 | 143 | 0.0 | 0.9 | 0.00 | 0.17 | 0.17 | 79 | 1011.3 |
| 20260903205637 | 82 | 212 | 0.0 | 0.9 | 0.00 | 0.17 | 0.17 | 81 | 1011.2 |
| 20260903205130 | 83 | 212 | 0.0 | 0.9 | 0.00 | 0.17 | 0.17 | 81 | 1011.4 |
| 20260903204626 | 81 | 212 | 0.0 | 0.0 | 0.00 | 0.17 | 0.17 | 84 | 1011.4 |
| 20260903204123 | 80 | 211 | 0.0 | 0.9 | 0.00 | 0.17 | 0.17 | 84 | 1011.5 |
| 20260903203617 | 80 | 211 | 0.0 | 0.0 | 0.00 | 0.17 | 0.17 | 85 | 1011.4 |
| 20260903203112 | 80 | 211 | 0.9 | 1.7 | 0.00 | 0.17 | 0.17 | 85 | 1011.5 |
| 20260903202608 | 81 | 209 | 0.0 | 0.0 | 0.00 | 0.17 | 0.17 | 84 | 1011.3 |
| 20260903202102 | 83 | 199 | 0.9 | 1.7 | 0.00 | 0.17 | 0.17 | 80 | 1011.3 |
| 20260903201556 | 83 | 199 | 0.0 | 0.0 | 0.00 | 0.17 | 0.17 | 80 | 1011.2 |
| 20260903201050 | 82 | 249 | 0.9 | 0.9 | 0.00 | 0.17 | 0.17 | 85 | 1011.3 |
| 20260903200546 | 83 | 196 | 0.9 | 0.9 | 0.00 | 0.17 | 0.17 | 79 | 1011.4 |
| 20260903200041 | 82 | 179 | 0.9 | 0.9 | 0.00 | 0.17 | 0.17 | 79 | 1011.4 |
| 20260903195537 | 82 | 235 | 2.6 | 2.6 | 0.00 | 0.17 | 0.17 | 80 | 1011.3 |
| 20260903195032 | 82 | 233 | 0.0 | 0.9 | 0.00 | 0.17 | 0.17 | 79 | 1011.4 |
| 20260903194527 | 82 | 223 | 0.0 | 0.9 | 0.00 | 0.17 | 0.17 | 83 | 1011.6 |
| 20260903194022 | 82 | 248 | 0.9 | 1.7 | 0.00 | 0.17 | 0.17 | 83 | 1011.5 |
| 20260903193519 | 82 | 171 | 0.9 | 1.7 | 0.00 | 0.17 | 0.17 | 83 | 1011.7 |
| 20260903193014 | 82 | 222 | 2.6 | 2.6 | 0.00 | 0.17 | 0.17 | 79 | 1011.7 |
| 20260903192510 | 82 | 178 | 0.9 | 0.9 | 0.00 | 0.17 | 0.17 | 83 | 1011.8 |
| 20260903192004 | 82 | 129 | 0.9 | 0.9 | 0.00 | 0.17 | 0.17 | 79 | 1011.9 |
| 20260903191500 | 82 | 192 | 2.6 | 2.6 | 0.00 | 0.17 | 0.17 | 78 | 1011.7 |
| 20260903190955 | 81 | 125 | 0.0 | 0.0 | 0.00 | 0.17 | 0.17 | 85 | 1012.0 |
| 20260903190454 | 80 | 175 | 0.0 | 0.9 | 0.00 | 0.17 | 0.17 | 85 | 1012.0 |
| 20260903185948 | 80 | 141 | 0.9 | 0.9 | 0.00 | 0.17 | 0.17 | 85 | 1012.1 |
| 20260903185445 | 79 | 141 | 0.0 | 0.9 | 0.00 | 0.17 | 0.17 | 87 | 1012.0 |
| 20260903184944 | 78 | 166 | 0.0 | 0.0 | 0.00 | 0.17 | 0.17 | 86 | 1012.0 |
| 20260903184442 | 79 | 137 | 0.0 | 0.9 | 0.00 | 0.17 | 0.17 | 86 | 1012.2 |
| 20260903183936 | 80 | 90 | 1.7 | 1.7 | 0.00 | 0.17 | 0.17 | 84 | 1012.1 |
| 20260903183430 | 82 | 109 | 0.9 | 0.9 | 0.00 | 0.17 | 0.17 | 82 | 1012.3 |
| 20260903182930 | 81 | 178 | 0.9 | 0.9 | 0.00 | 0.17 | 0.17 | 85 | 1012.1 |
| 20260903182429 | 82 | 187 | 3.5 | 5.2 | 0.00 | 0.17 | 0.17 | 81 | 1012.0 |
| 20260903181925 | 81 | 201 | 2.6 | 2.6 | 0.00 | 0.17 | 0.17 | 83 | 1012.3 |
| 20260903181419 | 82 | 195 | 4.3 | 5.2 | 0.00 | 0.17 | 0.17 | 79 | 1012.1 |
| 20260903180918 | 82 | 121 | 0.9 | 1.7 | 0.00 | 0.17 | 0.17 | 83 | 1012.4 |
| 20260903180413 | 81 | 219 | 0.9 | 0.9 | 0.00 | 0.17 | 0.17 | 84 | 1012.2 |
| 20260903175913 | 81 | 233 | 0.9 | 0.9 | 0.00 | 0.17 | 0.17 | 82 | 1012.2 |
| 20260903175407 | 81 | 204 | 3.5 | 5.2 | 0.00 | 0.17 | 0.17 | 81 | 1012.4 |
| 20260903174901 | 82 | 198 | 0.9 | 1.7 | 0.00 | 0.17 | 0.17 | 85 | 1012.2 |
| 20260903174356 | 81 | 189 | 0.9 | 0.9 | 0.00 | 0.17 | 0.17 | 81 | 1012.4 |
| 20260903173850 | 80 | 214 | 1.7 | 1.7 | 0.00 | 0.17 | 0.17 | 84 | 1012.4 |
| 20260903173346 | 81 | 221 | 1.7 | 2.6 | 0.00 | 0.17 | 0.17 | 84 | 1012.6 |
| 20260903172842 | 80 | 237 | 2.6 | 2.6 | 0.00 | 0.17 | 0.17 | 86 | 1012.5 |
| 20260903172336 | 79 | 213 | 3.5 | 5.2 | 0.00 | 0.17 | 0.17 | 85 | 1012.1 |
| 20260903171832 | 79 | 177 | 2.6 | 2.6 | 0.00 | 0.17 | 0.17 | 81 | 1012.5 |
| 20260903171327 | 79 | 179 | 3.5 | 3.5 | 0.00 | 0.17 | 0.17 | 85 | 1012.6 |
| 20260903170826 | 79 | 203 | 0.0 | 0.9 | 0.00 | 0.17 | 0.17 | 86 | 1012.7 |
| 20260903170322 | 79 | 226 | 3.5 | 3.5 | 0.00 | 0.17 | 0.17 | 86 | 1012.7 |
| 20260903165820 | 79 | 206 | 0.9 | 1.7 | 0.00 | 0.17 | 0.17 | 86 | 1012.6 |
| 20260903165314 | 78 | 234 | 3.5 | 5.2 | 0.00 | 0.17 | 0.17 | 86 | 1012.6 |
| 20260903164814 | 78 | 208 | 1.7 | 1.7 | 0.00 | 0.17 | 0.17 | 88 | 1012.7 |
| 20260903164310 | 77 | 199 | 0.9 | 0.9 | 0.00 | 0.17 | 0.17 | 86 | 1012.7 |
| 20260903163809 | 77 | 186 | 0.9 | 0.9 | 0.00 | 0.17 | 0.17 | 88 | 1012.8 |
| 20260903163306 | 77 | 151 | 1.7 | 3.5 | 0.00 | 0.17 | 0.17 | 86 | 1013.0 |
| 20260903162801 | 77 | 196 | 1.7 | 2.6 | 0.00 | 0.17 | 0.17 | 90 | 1013.1 |
| 20260903162257 | 78 | 240 | 1.7 | 1.7 | 0.00 | 0.17 | 0.17 | 88 | 1012.8 |
| 20260903161753 | 78 | 105 | 0.9 | 1.7 | 0.00 | 0.17 | 0.17 | 87 | 1013.1 |
| 20260903161248 | 76 | 116 | 0.0 | 0.9 | 0.00 | 0.17 | 0.17 | 90 | 1013.1 |
| 20260903160744 | 76 | 202 | 3.5 | 3.5 | 0.00 | 0.17 | 0.17 | 91 | 1013.2 |
| 20260903160243 | 75 | 224 | 0.9 | 1.7 | 0.00 | 0.17 | 0.17 | 92 | 1013.4 |
| 20260903155741 | 75 | 319 | 1.7 | 1.7 | 0.00 | 0.17 | 0.17 | 91 | 1013.4 |
| 20260903155237 | 73 | 203 | 1.7 | 1.7 | 0.00 | 0.17 | 0.17 | 95 | 1013.3 |
| 20260903154732 | 73 | 186 | 0.9 | 1.7 | 0.00 | 0.17 | 0.17 | 96 | 1013.8 |
| 20260903154228 | 72 | 162 | 0.0 | 0.9 | 0.00 | 0.17 | 0.17 | 95 | 1013.5 |
| 20260903153723 | 72 | 181 | 0.0 | 0.0 | 0.00 | 0.17 | 0.17 | 97 | 1013.6 |
| 20260903153219 | 72 | 196 | 1.7 | 1.7 | 0.00 | 0.17 | 0.17 | 97 | 1013.6 |
| 20260903152715 | 71 | 182 | 0.0 | 0.9 | 0.00 | 0.17 | 0.17 | 98 | 1013.6 |
| 20260903152212 | 71 | 177 | 0.0 | 0.9 | 0.00 | 0.17 | 0.17 | 99 | 1013.7 |
| 20260903151711 | 71 | 177 | 0.0 | 0.0 | 0.00 | 0.17 | 0.17 | 99 | 1013.6 |
| 20260903151206 | 71 | 178 | 1.7 | 1.7 | 0.00 | 0.17 | 0.17 | 99 | 1013.8 |
| 20260903150701 | 72 | 174 | 0.0 | 0.0 | 0.00 | 0.17 | 0.17 | 99 | 1013.9 |
| 20260903150155 | 71 | 180 | 0.9 | 0.9 | 0.00 | 0.17 | 0.17 | 98 | 1014.0 |
| 20260903145650 | 71 | 194 | 0.0 | 0.9 | 0.00 | 0.17 | 0.17 | 99 | 1013.9 |
| 20260903145145 | 71 | 210 | 1.7 | 1.7 | 0.00 | 0.17 | 0.17 | 99 | 1013.9 |
| 20260903144643 | 71 | 193 | 1.7 | 1.7 | 0.00 | 0.17 | 0.17 | 99 | 1013.8 |
| 20260903144140 | 71 | 207 | 1.7 | 1.7 | 0.00 | 0.17 | 0.17 | 99 | 1014.1 |
| 20260903143636 | 71 | 189 | 0.9 | 1.7 | 0.00 | 0.17 | 0.17 | 99 | 1013.9 |
| 20260903143131 | 71 | 177 | 1.7 | 1.7 | 0.00 | 0.17 | 0.17 | 99 | 1013.9 |
| 20260903142627 | 71 | 194 | 1.7 | 1.7 | 0.00 | 0.17 | 0.17 | 99 | 1013.8 |
| 20260903142123 | 70 | 193 | 1.7 | 1.7 | 0.00 | 0.17 | 0.17 | 99 | 1013.8 |
| 20260903141619 | 70 | 190 | 0.9 | 1.7 | 0.00 | 0.17 | 0.17 | 99 | 1013.8 |
| 20260903141114 | 69 | 185 | 0.0 | 0.0 | 0.00 | 0.17 | 0.17 | 99 | 1013.7 |
| 20260903140610 | 69 | 188 | 0.9 | 0.9 | 0.00 | 0.17 | 0.17 | 99 | 1013.8 |
| 20260903140105 | 68 | 170 | 0.9 | 0.9 | 0.00 | 0.17 | 0.17 | 99 | 1013.6 |
| 20260903135601 | 68 | 171 | 0.0 | 0.9 | 0.00 | 0.17 | 0.17 | 99 | 1013.7 |
| 20260903135101 | 67 | 171 | 0.0 | 0.9 | 0.00 | 0.17 | 0.17 | 99 | 1013.6 |
| 20260903134559 | 67 | 171 | 0.9 | 0.9 | 0.00 | 0.17 | 0.17 | 99 | 1013.4 |
| 20260903134055 | 67 | 171 | 0.0 | 0.9 | 0.00 | 0.17 | 0.17 | 99 | 1013.6 |
| 20260903133553 | 67 | 171 | 0.9 | 0.9 | 0.00 | 0.17 | 0.17 | 99 | 1013.5 |
| 20260903133049 | 67 | 170 | 0.9 | 0.9 | 0.00 | 0.17 | 0.17 | 99 | 1013.3 |
| 20260903132543 | 68 | 170 | 0.0 | 0.9 | 0.00 | 0.17 | 0.17 | 99 | 1013.2 |
| 20260903132038 | 67 | 170 | 0.0 | 0.9 | 0.00 | 0.17 | 0.17 | 99 | 1013.5 |